Regional Weather Roundup
Issued by NWS

Home | Current Version | Previous Version | Text Only | Print | Product List | Glossary On
Versions: 1 2 3 4 5 6 7 8 9 10 11 12 13 14 15 16 17 18 19 20 21 22 23 24 25 26 27 28 29 30 31 32 33 34 35 36 37 38 39 40 41 42 43 44 45 46 47 48 49 50
000
ASUS46 KLOX 301513
RWRCA

SOUTHERN CALIFORNIA WEATHER ROUNDUP
NATIONAL WEATHER SERVICE OXNARD CALIFORNIA
800 AM PDT TUE JUN 30 2015

NOTE: "FAIR" INDICATES FEW OR NO CLOUDS BELOW 12,000 FEET WITH NO
SIGNIFICANT WEATHER AND/OR OBSTRUCTIONS TO VISIBILITY.

  -  STATIONS PRECEEDED BY AN ASTERISK (*) ARE NOT NWS OR FAA
     STATIONS AND ARE NOT SUBJECT TO NWS AND FAA QUALITY CONTROL.

CAZ041-042-087-301600-
LA AND ORANGE COUNTY COASTAL AREAS


CITY           SKY/WX    TMP DP  RH WIND       PRES   REMARKS
L.A. DOWNTOWN  SUNNY     73  61  65 CALM      29.89R
L.A. AIRPORT   MOSUNNY   69  64  84 CALM      29.90R
LONG BEACH     MOSUNNY   71  63  75 VRB5      29.90R

CITY           SKY/WX    TMP DP  RH WIND       PRES   REMARKS
AVALON           N/A     66 N/A N/A MISG        N/A
FULLERTON      SUNNY     71  63  75 VRB3      29.89R
*GETTY CENTER    N/A     70  59  68 S2          N/A
HAWTHORNE      SUNNY     71  63  75 CALM      29.90R
*LOS ALAMITOS  CLOUDY    70  66  88 S3        29.90R
*REDONDO BEACH   N/A     69  66  89 CALM      29.90R
SANTA ANA      MOSUNNY   66  63  88 SW5       29.90R
STA MONICA APT SUNNY     69  63  81 S3        29.90R
TORRANCE       MOSUNNY   73  64  73 CALM      29.91
*UCLA            N/A     72  59  64 CALM      29.88S

$$

CAZ547-548-048-301600-
LA COUNTY VALLEYS AND INLAND EMPIRE


CITY           SKY/WX    TMP DP  RH WIND       PRES   REMARKS
BURBANK        SUNNY     75  58  55 SE5       29.90R
VAN NUYS       SUNNY     77  58  51 E5        29.90R

CITY           SKY/WX    TMP DP  RH WIND       PRES   REMARKS
CORONA AIRPORT SUNNY     73  62  68 CALM      29.91R
*CHATSWORTH      N/A     79  59  50 NE1       29.86R
CHINO          MOSUNNY   76  61  59 S3        29.91R
MARCH AFB      SUNNY     77  58  51 CALM      29.93R
*NORTHRIDGE      N/A     77  55  47 NE2         N/A
ONTARIO        MOSUNNY   76  59  55 S3        29.91R
*PASADENA        N/A     75  63  64 E2          N/A
POMONA         SUNNY     73  59  60 CALM      29.94R
RIVERSIDE      LGT RAIN  75  60  59 CALM      29.90S
SAN BERNARDINO MOSUNNY   75  55  50 CALM      29.91S
*SAN GABRIEL     N/A     73  62  68 S2        29.96R
*WHITEMAN AP   SUNNY     75  57  53 CALM      29.94
*WOODLAND HILL   N/A     75  57  53 NE1         N/A

$$

CAZ054-055-301600-
LA AND SAN BERNARDINO COUNTY MOUNTAINS


CITY           SKY/WX    TMP DP  RH WIND       PRES   REMARKS
*BIG BEAR AIRP MOSUNNY   64  48  55 CALM      30.31S
SANDBERG       SUNNY     83  47  28 W5        30.13S

$$

CAZ028-029-059-060-099-301600-
ANTELOPE VALLEY AND SURROUNDING AREAS


CITY           SKY/WX    TMP DP  RH WIND       PRES   REMARKS
LANCASTER      SUNNY     84  44  24 SE3       29.97S
PALMDALE       SUNNY     85  48  27 N3        29.98S

CITY           SKY/WX    TMP DP  RH WIND       PRES   REMARKS
29 PALMS       SUNNY     89  51  27 N5        30.00R
BARSTOW/DAGGET SUNNY     89  46  22 W12       29.93S
BISHOP         SUNNY     80  50  34 NW7       30.12S
CHINA LAKE     MOSUNNY   90  47  22 SW3       29.95R
EDWARDS AFB    PTSUNNY   83  49  30 SW6       29.95R
MOJAVE         FAIR      86  50  28 CALM      30.00R
NEEDLES        SUNNY    100  56  23 E6        29.84R HX  99
VICTORVILLE    SUNNY     84  50  30 CALM      30.01R

$$

CAZ039-040-301600-
VENTURA AND SANTA BARBARA COUNTY COAST


CITY           SKY/WX    TMP DP  RH WIND       PRES   REMARKS
CAMARILLO      SUNNY     67  59  75 CALM      29.89R
NWS OXNARD       N/A     68  60  76 CALM      29.89R
OXNARD AIRPORT SUNNY     67  59  75 NW5       29.89R
*POINT MUGU    MOSUNNY   65  61  87 CALM      29.90R
SBA APT/GOLETA SUNNY     67  60  78 CALM      29.88S
*SANTA BARBARA   N/A     68  58  72 CALM      29.96S
*VENTURA         N/A     66  59  78 CALM      29.50S

$$

CAZ044-045-301600-
VENTURA COUNTY VALLEYS


CITY           SKY/WX    TMP DP  RH WIND       PRES   REMARKS
*SIMI VALLEY     N/A     77  54  44 CALM      29.83S
*OJAI            N/A     75  56  51 W2        29.82R
*FILLMORE        N/A     65  61  86 CALM      29.79R

$$

CAZ053-301600-
VENTURA COUNTY MOUNTAINS


CITY           SKY/WX    TMP DP  RH WIND       PRES   REMARKS

$$

CAZ034-035-036-301600-
CENTRAL COAST AND SANTA YNEZ VALLEY


CITY           SKY/WX    TMP DP  RH WIND       PRES   REMARKS
SAN LUIS OBISP SUNNY     61  55  81 CALM      29.90S
SANTA MARIA    MOSUNNY   61  56  83 CALM      29.90S

CITY           SKY/WX    TMP DP  RH WIND       PRES   REMARKS
*CAL POLY SLO    N/A     63  57  82 NE1         N/A
*LOMPOC        CLOUDY    59  54  82 CALM      29.91S
*PISMO BEACH     N/A     57  55  94 SW1       29.91R
*SANTA YNEZ    FAIR      61  54  77 CALM      29.90S

$$

CAZ037-038-051-301600-
SAN LUIS OBISPO COUNTY INTERIOR AND CUYAMA VALLEY


CITY           SKY/WX    TMP DP  RH WIND       PRES   REMARKS
*CUYAMA          N/A     74  56  53 E2        29.83S
PASO ROBLES    SUNNY     69  53  56 CALM      29.92R

$$

CAZ032-033-061-301600-
SOUTHERN DESERTS


CITY           SKY/WX    TMP DP  RH WIND       PRES   REMARKS
BLYTHE         SUNNY     90  64  42 S16       29.85R HX  91
IMPERIAL       SUNNY     87  71  58 SE23      29.83R HX  93
PALM SPRINGS   MOSUNNY   93  53  25 CALM      29.85S HX  90
THERMAL        SUNNY     91  70  49 S7        29.80R HX  96

$$

ELSEWHERE ACROSS THE WESTERN UNITED STATES AND MEXICO


CITY           SKY/WX    TMP DP  RH WIND       PRES   REMARKS
DENVER, CO     MOSUNNY   77  50  38 W6        30.18R
GRAND CANYON,  SUNNY     76  50  40 CALM      30.30S
HONOLULU, HI   PTCLDY    73  68  83 CALM      29.94S
KAHULUI, MAUI  CLEAR     72  64  78 SE6       29.95F
LAKE TAHOE, CA SUNNY     64  55  72 CALM      30.29F
LAS VEGAS, NV  CLOUDY    97  53  22 S6        29.88R HX  94
MAMMOTH LAKES, FAIR      64  46  52 SE5       30.37S
MEXICO CITY, M CLOUDY    63  50  63 S3        30.36
PHOENIX, AZ    MOSUNNY   92  63  38 SE13      29.90R HX  93
PORTLAND, OR   PTSUNNY   63  58  83 N5        30.11S
RENO, NV       PTSUNNY   77  50  38 S3        30.16S
SALT LAKE CITY PTSUNNY   85  54  34 SE9       30.07S
SAN DIEGO, CA  PTSUNNY   70  62  76 CALM      29.91S
SAN FRANCISCO, PTSUNNY   59  54  83 W7        29.91S
SAN JOSE, CA   PTSUNNY   64  58  80 NW5       29.91S
SEATTLE, WA    FOG       60  57  89 S6        30.13S VSB 1/2
TIJUANA, MEX   PTSUNNY   68  63  83 CALM      29.93  FOG

$$

STATION/POSITION TIME  TEMP    WIND        PRES    VSBY  WAVE
                       AIR SEA DIR/SP/G                  HT/PER
                 (UTC) (F)     (DEG/KT/KT) (MB)    (MI)  (FT/S)
POINT ARGUELLO B NOT AVBL
WEST SANTA BARBA 1450   57 60  310/ 12/ 14 1011.7S         5/ 8
POINT CONCEPTION NOT AVBL
EAST SANTA BARBA 1400   59 64  230/  6/  8 1012.5R
SANTA MONICA BAY 1450   63 66  360/  6/  8 1012.3R         3/ 6



USA.gov is the U.S. government's official web portal to all federal, state and local government web resources and services.